Whitefield, NH

7:22 AM EST on February 09, 2016 (GMT -0500)
Mount Washington Regional

Weather History for KHIE - November, 2013

Change the Weather History Date:

Wednesday, November 6, 2013

  Actual Average Record
Temperature  
Mean Temperature 41 °F -  
Max Temperature 57 °F 43 °F 71 °F (2015)
Min Temperature 25 °F 25 °F 16 °F (2011)
Degree Days  
Heating Degree Days 24    
Moisture  
Dew Point 31 °F    
Average Humidity 72    
Maximum Humidity 92    
Minimum Humidity 40    
Precipitation  
Precipitation 0.00 in - - ()
Sea Level Pressure  
Sea Level Pressure 30.23 in    
Wind  
Wind Speed 1 mph (West)    
Max Wind Speed 9 mph    
Max Gust Speed 16 mph    
Visibility 10 miles    
Events      
Averages and records for this station are not official NWS values.
T = Trace of Precipitation, MM = Missing Value Source: NWS Daily Summary

Daily Weather History Graph

Daily Weather History Graph

Search for Another Location

Airport or City:

Trip Planner

Search our weather history database for the weather conditions in past years. The results will help you decide how hot, cold, wet, or windy it might be!

Date:

Astronomy

Nov. 06, 2013 Rise Set
Actual Time 6:30 AM EST 4:28 PM EST
Civil Twilight 5:59 AM EST 4:59 PM EST
Nautical Twilight 5:25 AM EST 5:33 PM EST
Astronomical Twilight 4:51 AM EST 6:07 PM EST
Moon 9:45 AM EST (11/6) 7:26 PM EST (11/6)
Length of Visible Light 10h 59m
Length of Day
9h 58m
Waxing Crescent, 13% of the Moon is Illuminated
Nov 6
Waxing Crescent
Nov 10
First Quarter
Nov 17
Full
Nov 25
Last Quarter
Dec 2
New

Hourly Weather History & Observations

Time (EST) Temp. Dew Point Humidity Pressure Visibility Wind Dir Wind Speed Gust Speed Precip Events Conditions
12:52 AM 30.9 °F 26.1 °F 82% 30.47 in 10.0 mi Calm Calm - N/A   Mostly Cloudy
1:52 AM 30.9 °F 26.1 °F 82% 30.45 in 10.0 mi Calm Calm - N/A   Overcast
2:52 AM 28.0 °F 25.0 °F 88% 30.44 in 10.0 mi Calm Calm - N/A   Clear
3:52 AM 27.0 °F 23.0 °F 85% 30.43 in 10.0 mi Calm Calm - N/A   Clear
4:52 AM 26.1 °F 23.0 °F 88% 30.43 in 10.0 mi Calm Calm - N/A   Clear
5:52 AM 25.0 °F 21.9 °F 88% 30.43 in 10.0 mi Calm Calm - N/A   Clear
6:52 AM 28.0 °F 26.1 °F 92% 30.40 in 10.0 mi Calm Calm - N/A   Clear
7:52 AM 30.9 °F 28.0 °F 89% 30.39 in 10.0 mi Calm Calm - N/A   Clear
8:52 AM 35.1 °F 28.9 °F 78% 30.37 in 10.0 mi Calm Calm - N/A   Overcast
9:52 AM 39.9 °F 30.0 °F 68% 30.31 in 10.0 mi Calm Calm - N/A   Clear
10:52 AM 45.0 °F 30.0 °F 56% 30.28 in 10.0 mi Calm Calm - N/A   Clear
11:52 AM 51.1 °F 32.0 °F 48% 30.22 in 10.0 mi Calm Calm - N/A   Clear
12:52 PM 57.0 °F 33.1 °F 40% 30.18 in 10.0 mi WNW 4.6 mph - N/A   Clear
1:52 PM 57.0 °F 34.0 °F 42% 30.15 in 10.0 mi Variable 3.5 mph - N/A   Partly Cloudy
2:52 PM 55.9 °F 33.1 °F 42% 30.14 in 9.0 mi WSW 9.2 mph 16.1 mph N/A   Scattered Clouds
3:52 PM 53.1 °F 35.1 °F 50% 30.14 in 9.0 mi WSW 3.5 mph - N/A   Clear
4:52 PM 45.0 °F 35.1 °F 68% 30.14 in 10.0 mi Calm Calm - N/A   Clear
5:52 PM 45.0 °F 36.0 °F 71% 30.11 in 10.0 mi Calm Calm - N/A   Clear
6:52 PM 43.0 °F 36.0 °F 76% 30.08 in 10.0 mi Calm Calm - N/A   Clear
7:52 PM 42.1 °F 35.1 °F 76% 30.04 in 10.0 mi Calm Calm - N/A   Clear
8:52 PM 39.9 °F 35.1 °F 83% 30.02 in 10.0 mi Calm Calm - N/A   Clear
9:52 PM 39.9 °F 35.1 °F 83% 29.98 in 10.0 mi Calm Calm - N/A   Clear
10:52 PM 52.0 °F 39.9 °F 63% 29.92 in 10.0 mi Calm Calm - N/A   Partly Cloudy
11:52 PM 43.0 °F 37.9 °F 82% 29.91 in 10.0 mi Calm Calm - N/A   Mostly Cloudy